Regional Weather Roundup
Issued by NWS

Home | Current Version | Previous Version | Text Only | Print | Product List | Glossary On
Versions: 1 2 3 4 5 6 7 8 9 10 11 12 13 14 15 16 17 18 19 20 21 22 23 24 25 26 27 28 29 30 31 32 33 34 35 36 37 38 39 40 41 42 43 44 45 46 47 48 49 50
246
ASUS44 KJAN 201010
RWRMS

MISSISSIPPI HOURLY WEATHER ROUNDUP
NATIONAL WEATHER SERVICE JACKSON MS
500 AM CDT SUN APR 20 2014

NOTE: "FAIR: INDICATES FEW OR NO CLOUDS BELOW 12,000 FEET WITH NO
SIGNIFICANT WEATHER AND/OR OBSTRUCTIONS TO VISIBILITY.

MSZ001>002-007>008-010>013-018>021-025>028-034>036-201100-
NORTHWEST MISSISSIPPI

CITY           SKY/WX    TMP DP  RH WIND       PRES   REMARKS
CLARKSDALE       N/A     50  50 100 CALM      30.17S
CLEVELAND      FAIR      55  51  87 N5        30.16R
GREENWOOD      CLEAR     51  46  83 NE5       30.15S
GREENVILLE     CLEAR     54  51  90 CALM      30.15R
GRENADA        FAIR      46  45  93 CALM      30.17R
OLIVE BRANCH   CLEAR     52  46  82 CALM      30.17R
OXFORD         FAIR      50  43  76 CALM      30.18S
TUNICA         SUNNY     50  48  93 CALM      30.17S
$$

MSZ003>006-009-014>017-022>024-029>033-037>039-201100-
NORTHEAST MISSISSIPPI

CITY           SKY/WX    TMP DP  RH WIND       PRES   REMARKS
BELMONT        FAIR      45  44  96 CALM      30.18R
COLUMBUS AFB   CLEAR     48  47  99 CALM      30.19R
CORINTH        FAIR      45  43  93 CALM      30.18S
GOLDN TRIANGLE CLEAR     48  43  81 CALM      30.21R
STARKVILLE     FAIR      45  45 100 CALM      30.18R
TUPELO         CLEAR     50  46  86 CALM      30.18R
$$

MSZ040-058-201100-
CENTRAL MISSISSIPPI

CITY           SKY/WX    TMP DP  RH WIND       PRES   REMARKS
JACKSON INTL   CLEAR     50  48  93 CALM      30.15S FOG
JACKSON HAWKNS CLEAR     53  49  86 CALM      30.14F
MERIDIAN KEY   CLEAR     48  46  93 CALM      30.17R
MERIDIAN NAS   CLEAR     48  45  89 CALM      30.18R
RAYMOND        FAIR      48  45  87 CALM      30.15S HAZE
VICKSBURG      PTCLDY    57  55  93 CALM      30.15R
$$

MSZ059>079-201100-
SOUTH MISSISSIPPI

CITY           SKY/WX    TMP DP  RH WIND       PRES   REMARKS
BROOKHAVEN     FAIR      50  50 100 CALM      30.16S FOG
COLUMBIA       FAIR      48  48 100 MISG      30.13F
HATTIESBURG    CLEAR     51  50  96 CALM      30.16R
MCCOMB         PTCLDY    53  49  86 CALM      30.14S
NATCHEZ        CLEAR     52  48  87 CALM      30.14S
PINE BELT      CLEAR     52  46  82 CALM      30.16R
$$

MSZ080>082-201100-
COASTAL MISSISSIPPI

CITY           SKY/WX    TMP DP  RH WIND       PRES   REMARKS
BILOXI         CLEAR     57  54  91 NE3       30.13R
PASCAGOULA     CLEAR     52  51  97 N3        30.14R FOG
GULFPORT       CLEAR     57  52  83 CALM      30.12S
$$



USA.gov is the U.S. government's official web portal to all federal, state and local government web resources and services.